User: anonymous
Location: Unspecified
(0.0000°N, 0.0000°E)
Time: 05:13:49
(UTC+02:00)
Language:

Meteor PRIRODA - Orbit

View from above orbital plane
View from above orbital plane
View from above satellite
View from above satellite

Ground track
Ground track

The orbit data is extracted from the following two-line orbital elements,

1 12585U 81065A   14237.44514799  .00003177  00000-0  17543-3 0  8744
2 12585 097.3227 226.3012 0017474 031.0554 088.0902 15.14495535806474
Epoch (UTC): 25 August 2014 10:41:00
Eccentricity: 0.0017474
inclination: 97.3227°
perigee height: 510 km
apogee height: 534 km
right ascension of ascending node: 226.3012°
argument of perigee: 31.0554°
revolutions per day: 15.14495535
mean anomaly at epoch: 88.0902°
orbit number at epoch: 80647

The dashed part of the orbit path shows where the satellite is in the earth's shadow,  

DLR